Regional Weather Roundup
Issued by NWS Goodland, KS

Home | Current Version | Previous Version | Text Only | Print | Product List | Glossary Off
Versions: 1 2 3 4 5 6 7 8 9 10 11 12 13 14 15 16 17 18 19 20 21 22 23 24 25 26 27 28 29 30 31 32 33 34 35 36 37 38 39 40 41 42 43 44 45 46 47 48 49 50

000
ASUS43 KGLD 012008
RWRGLD

GOODLAND FORECAST AREA HOURLY WEATHER ROUNDUP
NATIONAL WEATHER SERVICE GOODLAND KS
200 PM MDT WED OCT 01 2014

...OFFICIAL OBSERVATIONS...

CITY           SKY/WX    TMP DP  RH WIND       PRES   REMARKS
GOODLAND KS    SUNNY     75  41  29 CALM      29.80F
HILL CITY KS   MOSUNNY   78  56  46 VRB3      29.74F
IMPERIAL NEB   MOSUNNY   74  44  34 NE8       29.79F
MCCOOK NEB     SUNNY     77  46  33 CALM      29.76F
AKRON CO       SUNNY     66  42  41 NE10G18   29.84F
BURLINGTON CO  MOSUNNY   72  37  28 E6        29.82F
LIMON CO       MOSUNNY   67  35  30 S12G22    29.85F
$$

...UNOFFICIAL OBSERVATIONS...

CITY           SKY/WX    TMP DP  RH WIND       PRES   REMARKS
COLBY KS       SUNNY     77  46  33 CALM      29.78F
GOVE KS          N/A     79  32  18 MISG        N/A
NORTON KS      SUNNY     79  43  27 CALM      29.73F
SHARON SPRINGS   N/A     76  45  32 CALM        N/A
TRENTON NEB      N/A     74  32  21 NE5         N/A
KIT CARSON CO    N/A     70  42  35 MISG        N/A
YUMA CO          N/A     69  44  41 NE6G13      N/A
$$



USA.gov is the U.S. government's official web portal to all federal, state and local government web resources and services.